This demonstration page uses our WeatherBlox Daily Observations layout. Learn more.

Left ArrowRight Arrow

41.12389, -100.76542

Hourly Observations for August 17, 2019

Temp ( °F °C ) Dew Point ( °F °C ) Humidity (%) Winds ( mph kmh ) Pressure ( in mb ) Visibility ( mi km ) Precip ( " mm )
12:53 am 00:53 Clear 68 20 65 18.3 90 90 NE 8 13 29.78 1008 10 16 0.00 0.00
1:53 am 01:53 Clear 66 18.9 64 17.8 93 93 SE 6 9 29.76 1008 10 16 0.00 0.00
2:53 am 02:53 Clear with Mist and Fog 65 18.3 63 17.2 93 93 E 3 6 29.72 1006 6 10 0.00 0.00
3:10 am 03:10 Partly Cloudy with Mist and Fog 65 18.3 63 17.2 93 93 ENE 3 6 29.70 1006 4 6 0.00 0.00
3:18 am 03:18 Mostly Cloudy with Mist and Fog 65 18.3 64 17.8 97 97 Calm 29.70 1006 5 8 0.00 0.00
3:46 am 03:46 Cloudy with Mist and Fog 67 19.4 65 18.3 93 93 Calm 29.69 1005 2 3 0.00 0.00
3:51 am 03:51 Mostly Cloudy with Mist and Fog 66 19 66 19 100 100 Calm 29.70 1006 1 1 0.00 0.00
3:53 am 03:53 Mostly Cloudy with Mist and Fog 67 19.4 66 18.9 97 97 Calm 29.71 1006 1 1 0.00 0.00
4:05 am 04:05 Mostly Cloudy with Fog 67 19.4 66 18.9 97 97 Calm 29.70 1006 0 0 0.00 0.00
4:53 am 04:53 Mostly Cloudy with Fog 66 18.9 65 18.3 96 96 S 6 9 29.75 1007 0 0 0.00 0.00
5:01 am 05:01 Mostly Cloudy with Fog 66 18.9 65 18.3 96 96 SSW 5 7 29.73 1007 1 1 0.00 0.00
5:53 am 05:53 Mostly Cloudy with Mist and Fog 67 19.4 66 18.9 97 97 SE 6 9 29.76 1008 1 1 0.00 0.00
5:57 am 05:57 Cloudy with Mist and Fog 67 19.4 66 18.9 97 97 ESE 6 9 29.74 1007 2 3 0.00 0.00
5:59 am 05:59 Cloudy with Mist and Fog 67 19.4 66 18.9 97 97 ESE 7 11 29.74 1007 3 5 0.00 0.00
6:32 am 06:32 Mostly Cloudy 67 19.4 66 18.9 97 97 ESE 3 6 29.75 1007 9 14 0.00 0.00
6:53 am 06:53 Cloudy 67 19.4 66 18.9 97 97 SE 3 6 29.78 1008 9 14 0.00 0.00
7:07 am 07:07 Cloudy with Mist and Fog 67 19.4 66 18.9 97 97 SE 6 9 29.75 1007 5 8 0.00 0.00
7:18 am 07:18 Cloudy with Mist and Fog 68 20 66 18.9 93 93 ESE 7 11 29.74 1007 2 3 0.00 0.00
7:26 am 07:26 Cloudy with Mist and Fog 68 20 67 19.4 96 96 ESE 7 11 29.74 1007 2 3 0.00 0.00
7:53 am 07:53 Cloudy with Mist and Fog 68 20 67 19.4 96 96 SE 7 11 29.76 1008 2 3 0.00 0.00
8:18 am 08:18 Cloudy with Mist and Fog 69 20.6 68 20 96 96 SE 9 15 29.73 1007 1 2 0.00 0.00
8:44 am 08:44 Cloudy with Mist and Fog 69 20.6 68 20 96 96 S 8 13 29.72 1006 2 3 0.00 0.00
8:53 am 08:53 Cloudy with Mist and Fog 69 20.6 68 20 96 96 S 9 15 29.76 1008 3 5 0.00 0.00
9:17 am 09:17 Cloudy 70 21.1 68 20 93 93 S 6 9 29.70 1006 10 16 0.00 0.00
9:51 am 09:51 Mostly Cloudy 73 23 70 21 89 89 SSW 10 17 29.68 1005 10 16 0.00 0.00
9:53 am 09:53 Mostly Cloudy 74 23.3 69 20.6 85 85 S 14 22 29.73 1007 10 16 0.00 0.00
10:05 am 10:05 Partly Cloudy 75 23.9 68 20 79 79 SW 13 20 29.66 1005 10 16 0.00 0.00
10:53 am 10:53 Sunny 78 25.6 68 20 71 71 SSW 13 20 29.72 1006 10 16 0.00 0.00
11:53 am 11:53 Sunny 81 27.2 66 18.9 61 61 SSW 14 22 29.69 1006 10 16 0.00 0.00
12:53 pm 12:53 Sunny 83 28.3 66 18.9 57 57 SW 14 22 29.69 1005 10 16 0.00 0.00
1:53 pm 13:53 Sunny 84 28.9 67 19.4 57 57 SSW 14 22 29.67 1005 10 16 0.00 0.00
2:53 pm 14:53 Sunny 87 30.6 66 18.9 50 50 SW 12 19 29.65 1004 10 16 0.00 0.00
3:53 pm 15:53 Sunny 88 31.1 65 18.3 46 46 SSW 8 13 29.62 1003 10 16 0.00 0.00
4:53 pm 16:53 Sunny 88 31.1 68 20 52 52 S 10 17 29.62 1003 10 16 0.00 0.00
5:53 pm 17:53 Sunny 87 30.6 69 20.6 55 55 S 9 15 29.62 1003 10 16 0.00 0.00
6:53 pm 18:53 Sunny 85 29.4 65 18.3 51 51 S 8 13 29.62 1003 10 16 0.00 0.00
7:53 pm 19:53 Partly Cloudy with Light Rain 81 27.2 66 18.9 61 61 S 5 7 29.63 1003 10 16 0.00 0.00
8:33 pm 20:33 Sunny with Nearby Thunderstorms 80 26.7 66 18.9 62 62 SSW 10 17 29.53 1000 10 16 0.00 0.00
8:53 pm 20:53 Clear with Nearby Thunderstorms 80 26.7 63 17.2 56 56 WSW 12 19 29.64 1004 10 16 0.00 0.00
9:13 pm 21:13 Clear 76 24.4 57 13.9 52 52 VRB 5 7 29.57 1001 10 16 0.00 0.00
9:53 pm 21:53 Clear 77 25 54 12.2 45 45 Calm 29.62 1003 10 16 0.00 0.00
10:53 pm 22:53 Clear 72 22.2 54 12.2 53 53 VRB 5 7 29.64 1004 10 16 0.00 0.00
11:53 pm 23:53 Clear 73 22.8 52 11.1 48 48 W 3 6 29.65 1004 10 16 0.00 0.00

Powered by AerisWeather